Time,TemperatureF,DewpointF,PressureIn,WindDirection,WindDirectionDegrees,WindSpeedMPH,WindSpeedGustMPH,Humidity,HourlyPrecipIn,Conditions,Clouds,dailyrainin,SoftwareType,DateUTC
2013-04-26 00:02:00,42.0,22.0,-100.00,SSW,195,0.0,0.0,44,0.00,,,-99.99,,2013-04-26 05:02:00,
2013-04-26 00:12:00,42.0,22.0,-100.00,SSW,195,0.0,0.0,44,0.00,,,-99.99,,2013-04-26 05:12:00,
2013-04-26 00:22:00,42.0,22.0,-100.00,SSW,195,0.0,0.0,44,0.00,,,-99.99,,2013-04-26 05:22:00,
2013-04-26 00:32:00,42.0,22.0,-100.00,SSW,195,0.0,0.0,44,0.00,,,-99.99,,2013-04-26 05:32:00,
2013-04-26 00:52:00,43.0,21.0,-100.00,WSW,245,0.0,0.0,41,0.00,,,-99.99,,2013-04-26 05:52:00,
2013-04-26 01:02:00,43.0,21.0,-100.00,WSW,245,0.0,0.0,41,0.00,,,-99.99,,2013-04-26 06:02:00,
2013-04-26 01:11:00,43.0,21.0,-100.00,WSW,245,0.0,0.0,41,0.00,,,-99.99,,2013-04-26 06:11:00,
2013-04-26 01:21:00,43.0,21.0,-100.00,WSW,245,0.0,0.0,41,0.00,,,-99.99,,2013-04-26 06:21:00,
2013-04-26 01:52:00,44.0,19.0,-100.00,WSW,245,0.0,0.0,37,0.00,,,-99.99,,2013-04-26 06:52:00,
2013-04-26 02:01:00,44.0,19.0,-100.00,WSW,245,0.0,0.0,37,0.00,,,-99.99,,2013-04-26 07:01:00,
2013-04-26 02:11:00,44.0,19.0,-100.00,WSW,245,0.0,0.0,37,0.00,,,-99.99,,2013-04-26 07:11:00,
2013-04-26 02:22:00,44.0,19.0,-100.00,WSW,245,0.0,0.0,37,0.00,,,-99.99,,2013-04-26 07:22:00,
2013-04-26 02:31:00,44.0,19.0,-100.00,WSW,245,0.0,0.0,37,0.00,,,-99.99,,2013-04-26 07:31:00,
2013-04-26 02:52:00,44.0,19.0,-100.00,SW,215,0.0,0.0,36,0.00,,,-99.99,,2013-04-26 07:52:00,
2013-04-26 03:02:00,44.0,19.0,-100.00,SW,215,0.0,0.0,36,0.00,,,-99.99,,2013-04-26 08:02:00,
2013-04-26 03:11:00,44.0,19.0,-100.00,SW,215,0.0,0.0,36,0.00,,,-99.99,,2013-04-26 08:11:00,
2013-04-26 03:21:00,44.0,19.0,-100.00,SW,215,0.0,0.0,36,0.00,,,-99.99,,2013-04-26 08:21:00,
2013-04-26 03:31:00,44.0,20.0,-100.00,SW,225,0.0,0.0,37,0.00,,,-99.99,,2013-04-26 08:31:00,
2013-04-26 03:52:00,44.0,20.0,-100.00,SW,225,0.0,0.0,37,0.00,,,-99.99,,2013-04-26 08:52:00,
2013-04-26 04:01:00,44.0,20.0,-100.00,SW,225,0.0,0.0,37,0.00,,,-99.99,,2013-04-26 09:01:00,
2013-04-26 04:11:00,44.0,20.0,-100.00,SW,225,0.0,0.0,37,0.00,,,-99.99,,2013-04-26 09:11:00,
2013-04-26 04:21:00,44.0,20.0,-100.00,SW,225,0.0,0.0,37,0.00,,,-99.99,,2013-04-26 09:21:00,
2013-04-26 04:31:00,44.0,23.0,-100.00,West,265,0.0,0.0,42,0.00,,,-99.99,,2013-04-26 09:31:00,
2013-04-26 04:53:00,44.0,23.0,-100.00,West,265,0.0,0.0,42,0.00,,,-99.99,,2013-04-26 09:53:00,
2013-04-26 05:03:00,44.0,23.0,-100.00,West,265,0.0,0.0,42,0.00,,,-99.99,,2013-04-26 10:03:00,
2013-04-26 05:12:00,44.0,23.0,-100.00,West,265,0.0,0.0,42,0.00,,,-99.99,,2013-04-26 10:12:00,
2013-04-26 05:23:00,44.0,23.0,-100.00,West,265,0.0,0.0,42,0.00,,,-99.99,,2013-04-26 10:23:00,
2013-04-26 05:52:00,45.0,24.0,-100.00,SE,145,0.0,0.0,42,0.00,,,-99.99,,2013-04-26 10:52:00,
2013-04-26 06:02:00,45.0,24.0,-100.00,SE,145,0.0,0.0,42,0.00,,,-99.99,,2013-04-26 11:02:00,
2013-04-26 06:11:00,45.0,24.0,-100.00,SE,145,0.0,0.0,42,0.00,,,-99.99,,2013-04-26 11:11:00,
2013-04-26 06:22:00,45.0,24.0,-100.00,SE,145,0.0,0.0,42,0.00,,,-99.99,,2013-04-26 11:22:00,
2013-04-26 06:31:00,45.0,25.0,-100.00,SW,235,0.0,0.0,45,0.00,,,-99.99,,2013-04-26 11:31:00,
2013-04-26 06:32:00,45.0,24.0,-100.00,SE,145,0.0,0.0,42,0.00,,,-99.99,,2013-04-26 11:32:00,
2013-04-26 06:52:00,45.0,25.0,-100.00,SW,235,0.0,0.0,45,0.00,,,-99.99,,2013-04-26 11:52:00,
2013-04-26 07:01:00,45.0,25.0,-100.00,SW,235,0.0,0.0,45,0.00,,,-99.99,,2013-04-26 12:01:00,
2013-04-26 07:11:00,45.0,25.0,-100.00,SW,235,0.0,0.0,45,0.00,,,-99.99,,2013-04-26 12:11:00,
2013-04-26 07:21:00,45.0,25.0,-100.00,SW,235,0.0,0.0,45,0.00,,,-99.99,,2013-04-26 12:21:00,
2013-04-26 07:52:00,48.0,27.0,-100.00,WNW,285,0.0,0.0,45,0.00,,,-99.99,,2013-04-26 12:52:00,
2013-04-26 08:01:00,48.0,27.0,-100.00,WNW,285,0.0,0.0,45,0.00,,,-99.99,,2013-04-26 13:01:00,
2013-04-26 08:11:00,48.0,27.0,-100.00,WNW,285,0.0,0.0,45,0.00,,,-99.99,,2013-04-26 13:11:00,
2013-04-26 08:21:00,48.0,27.0,-100.00,WNW,285,0.0,0.0,45,0.00,,,-99.99,,2013-04-26 13:21:00,
2013-04-26 08:31:00,48.0,27.0,-100.00,WNW,285,0.0,0.0,45,0.00,,,-99.99,,2013-04-26 13:31:00,
2013-04-26 08:52:00,50.0,29.0,-100.00,WNW,300,0.0,0.0,44,0.00,,,-99.99,,2013-04-26 13:52:00,
2013-04-26 09:01:00,50.0,29.0,-100.00,WNW,300,0.0,0.0,44,0.00,,,-99.99,,2013-04-26 14:01:00,
2013-04-26 09:11:00,50.0,29.0,-100.00,WNW,300,0.0,0.0,44,0.00,,,-99.99,,2013-04-26 14:11:00,
2013-04-26 09:21:00,50.0,29.0,-100.00,WNW,300,0.0,0.0,44,0.00,,,-99.99,,2013-04-26 14:21:00,
2013-04-26 09:32:00,50.0,29.0,-100.00,WNW,300,0.0,0.0,44,0.00,,,-99.99,,2013-04-26 14:32:00,
2013-04-26 10:01:00,55.0,31.0,-100.00,SW,225,0.0,0.0,40,0.00,,,-99.99,,2013-04-26 15:01:00,
2013-04-26 10:12:00,55.0,31.0,-100.00,SW,225,0.0,0.0,40,0.00,,,-99.99,,2013-04-26 15:12:00,
2013-04-26 10:21:00,55.0,31.0,-100.00,SW,225,0.0,0.0,40,0.00,,,-99.99,,2013-04-26 15:21:00,
2013-04-26 10:33:00,55.0,31.0,-100.00,SW,225,0.0,0.0,40,0.00,,,-99.99,,2013-04-26 15:33:00,
2013-04-26 10:53:00,63.0,34.0,-100.00,SW,220,0.0,0.0,34,0.00,,,-99.99,,2013-04-26 15:53:00,
2013-04-26 11:03:00,63.0,34.0,-100.00,SW,220,0.0,0.0,34,0.00,,,-99.99,,2013-04-26 16:03:00,
2013-04-26 11:12:00,63.0,34.0,-100.00,SW,220,0.0,0.0,34,0.00,,,-99.99,,2013-04-26 16:12:00,
2013-04-26 11:23:00,63.0,34.0,-100.00,SW,220,0.0,0.0,34,0.00,,,-99.99,,2013-04-26 16:23:00,
2013-04-26 11:53:00,66.0,34.0,-100.00,West,265,0.0,0.0,31,0.00,,,-99.99,,2013-04-26 16:53:00,
2013-04-26 12:02:00,66.0,34.0,-100.00,West,265,0.0,0.0,31,0.00,,,-99.99,,2013-04-26 17:02:00,
2013-04-26 12:12:00,66.0,34.0,-100.00,West,265,0.0,0.0,31,0.00,,,-99.99,,2013-04-26 17:12:00,
2013-04-26 12:22:00,66.0,34.0,-100.00,West,265,0.0,0.0,31,0.00,,,-99.99,,2013-04-26 17:22:00,
2013-04-26 12:31:00,66.0,34.0,-100.00,West,265,0.0,0.0,31,0.00,,,-99.99,,2013-04-26 17:31:00,
2013-04-26 12:52:00,66.0,34.0,-100.00,West,260,0.0,0.0,31,0.00,,,-99.99,,2013-04-26 17:52:00,
2013-04-26 13:02:00,66.0,34.0,-100.00,West,260,0.0,0.0,31,0.00,,,-99.99,,2013-04-26 18:02:00,
2013-04-26 13:12:00,66.0,34.0,-100.00,West,260,0.0,0.0,31,0.00,,,-99.99,,2013-04-26 18:12:00,
2013-04-26 13:22:00,66.0,34.0,-100.00,West,260,0.0,0.0,31,0.00,,,-99.99,,2013-04-26 18:22:00,
2013-04-26 14:01:00,69.0,36.0,-100.00,West,260,0.0,0.0,30,0.00,,,-99.99,,2013-04-26 19:01:00,
2013-04-26 14:12:00,69.0,36.0,-100.00,West,260,0.0,0.0,30,0.00,,,-99.99,,2013-04-26 19:12:00,
2013-04-26 14:22:00,69.0,36.0,-100.00,West,260,0.0,0.0,30,0.00,,,-99.99,,2013-04-26 19:22:00,
2013-04-26 14:32:00,69.0,36.0,-100.00,West,260,0.0,0.0,30,0.00,,,-99.99,,2013-04-26 19:32:00,
2013-04-26 14:52:00,70.0,37.0,-100.00,SW,215,0.0,0.0,30,0.00,,,-99.99,,2013-04-26 19:52:00,
2013-04-26 15:02:00,70.0,37.0,-100.00,SW,215,0.0,0.0,30,0.00,,,-99.99,,2013-04-26 20:02:00,
2013-04-26 15:11:00,70.0,37.0,-100.00,SW,215,0.0,0.0,30,0.00,,,-99.99,,2013-04-26 20:11:00,
2013-04-26 15:21:00,70.0,37.0,-100.00,SW,215,0.0,0.0,30,0.00,,,-99.99,,2013-04-26 20:21:00,
2013-04-26 16:02:00,69.0,37.0,-100.00,SW,225,0.0,0.0,31,0.00,,,-99.99,,2013-04-26 21:02:00,
2013-04-26 16:11:00,69.0,37.0,-100.00,SW,225,0.0,0.0,31,0.00,,,-99.99,,2013-04-26 21:11:00,
2013-04-26 16:22:00,69.0,37.0,-100.00,SW,225,0.0,0.0,31,0.00,,,-99.99,,2013-04-26 21:22:00,
2013-04-26 16:32:00,70.0,38.0,-100.00,West,270,0.0,0.0,31,0.00,,,-99.99,,2013-04-26 21:32:00,
2013-04-26 16:33:00,69.0,37.0,-100.00,SW,225,0.0,0.0,31,0.00,,,-99.99,,2013-04-26 21:33:00,
2013-04-26 16:53:00,70.0,38.0,-100.00,West,270,0.0,0.0,31,0.00,,,-99.99,,2013-04-26 21:53:00,
2013-04-26 17:02:00,70.0,38.0,-100.00,West,270,0.0,0.0,31,0.00,,,-99.99,,2013-04-26 22:02:00,
2013-04-26 17:12:00,70.0,38.0,-100.00,West,270,0.0,0.0,31,0.00,,,-99.99,,2013-04-26 22:12:00,
2013-04-26 17:23:00,70.0,38.0,-100.00,West,270,0.0,0.0,31,0.00,,,-99.99,,2013-04-26 22:23:00,
2013-04-26 17:30:00,69.0,38.0,-100.00,WSW,245,0.0,0.0,33,0.00,,,-99.99,,2013-04-26 22:30:00,
2013-04-26 17:52:00,69.0,38.0,-100.00,WSW,245,0.0,0.0,33,0.00,,,-99.99,,2013-04-26 22:52:00,
2013-04-26 18:02:00,69.0,38.0,-100.00,WSW,245,0.0,0.0,33,0.00,,,-99.99,,2013-04-26 23:02:00,
2013-04-26 18:11:00,69.0,38.0,-100.00,WSW,245,0.0,0.0,33,0.00,,,-99.99,,2013-04-26 23:11:00,
2013-04-26 18:21:00,69.0,38.0,-100.00,WSW,245,0.0,0.0,33,0.00,,,-99.99,,2013-04-26 23:21:00,
2013-04-26 18:32:00,68.0,40.0,-100.00,WSW,245,0.0,0.0,37,0.00,,,-99.99,,2013-04-26 23:32:00,
2013-04-26 18:52:00,68.0,40.0,-100.00,WSW,245,0.0,0.0,37,0.00,,,-99.99,,2013-04-26 23:52:00,
2013-04-26 19:01:00,68.0,40.0,-100.00,WSW,245,0.0,0.0,37,0.00,,,-99.99,,2013-04-27 00:01:00,
2013-04-26 19:11:00,68.0,40.0,-100.00,WSW,245,0.0,0.0,37,0.00,,,-99.99,,2013-04-27 00:11:00,
2013-04-26 19:21:00,68.0,40.0,-100.00,WSW,245,0.0,0.0,37,0.00,,,-99.99,,2013-04-27 00:21:00,
2013-04-26 21:01:00,62.0,43.0,-100.00,NW,325,0.0,0.0,50,0.00,,,-99.99,,2013-04-27 02:01:00,
2013-04-26 21:11:00,62.0,43.0,-100.00,NW,325,0.0,0.0,50,0.00,,,-99.99,,2013-04-27 02:11:00,
2013-04-26 21:22:00,62.0,43.0,-100.00,NW,325,0.0,0.0,50,0.00,,,-99.99,,2013-04-27 02:22:00,
2013-04-26 21:31:00,60.0,43.0,-100.00,SW,230,0.0,0.0,53,0.00,,,-99.99,,2013-04-27 02:31:00,
2013-04-26 21:32:00,62.0,43.0,-100.00,NW,325,0.0,0.0,50,0.00,,,-99.99,,2013-04-27 02:32:00,
2013-04-26 21:52:00,60.0,43.0,-100.00,SW,230,0.0,0.0,53,0.00,,,-99.99,,2013-04-27 02:52:00,
2013-04-26 22:02:00,60.0,43.0,-100.00,SW,230,0.0,0.0,53,0.00,,,-99.99,,2013-04-27 03:02:00,
2013-04-26 22:11:00,60.0,43.0,-100.00,SW,230,0.0,0.0,53,0.00,,,-99.99,,2013-04-27 03:11:00,
2013-04-26 22:22:00,60.0,43.0,-100.00,SW,230,0.0,0.0,53,0.00,,,-99.99,,2013-04-27 03:22:00,
2013-04-26 22:32:00,58.0,43.0,-100.00,NW,310,0.0,0.0,57,0.00,,,-99.99,,2013-04-27 03:32:00,
2013-04-26 22:53:00,58.0,43.0,-100.00,NW,310,0.0,0.0,57,0.00,,,-99.99,,2013-04-27 03:53:00,
2013-04-26 23:03:00,58.0,43.0,-100.00,NW,310,0.0,0.0,57,0.00,,,-99.99,,2013-04-27 04:03:00,
2013-04-26 23:13:00,58.0,43.0,-100.00,NW,310,0.0,0.0,57,0.00,,,-99.99,,2013-04-27 04:13:00,
2013-04-26 23:23:00,58.0,43.0,-100.00,NW,310,0.0,0.0,57,0.00,,,-99.99,,2013-04-27 04:23:00,
2013-04-26 23:30:00,58.0,43.0,-100.00,WSW,255,0.0,0.0,58,0.00,,,-99.99,,2013-04-27 04:30:00,
2013-04-26 23:53:00,58.0,43.0,-100.00,WSW,255,0.0,0.0,58,0.00,,,-99.99,,2013-04-27 04:53:00,